Regional Weather Roundup
Issued by NWS

Home | Current Version | Previous Version | Graphics & Text | Print | Product List | Glossary On
Versions: 1 2 3 4 5 6 7 8 9 10 11 12 13 14 15 16 17 18 19 20 21 22 23 24 25 26 27 28 29 30 31 32 33 34 35 36 37 38 39 40 41 42 43 44 45 46 47 48 49 50
957
ASUS44 KJAN 021410
RWRMS

MISSISSIPPI HOURLY WEATHER ROUNDUP
NATIONAL WEATHER SERVICE JACKSON MS
800 AM CST MON MAR 02 2015

NOTE: "FAIR: INDICATES FEW OR NO CLOUDS BELOW 12,000 FEET WITH NO
SIGNIFICANT WEATHER AND/OR OBSTRUCTIONS TO VISIBILITY.

MSZ001>002-007>008-010>013-018>021-025>028-034>036-021500-
NORTHWEST MISSISSIPPI

CITY           SKY/WX    TMP DP  RH WIND       PRES   REMARKS
CLARKSDALE     CLOUDY    36  36 100 N10       30.46R WCI  28
CLEVELAND      LGT RAIN  36  36 100 NE12G21   30.39S WCI  28
GREENWOOD        N/A    N/A N/A N/A MISG      30.38R
GREENVILLE     LGT RAIN  37  35  92 N16       30.40S FOG     WCI  28
OLIVE BRANCH   CLOUDY    32  32 100 NE12G21   30.44F WCI  23
OXFORD         CLOUDY    36  34  93 NE13G20   30.43R FOG     WCI  27
TUNICA         PTSUNNY   36  32  87 NE17      30.45S WCI  25
$$

MSZ003>006-009-014>017-022>024-029>033-037>039-021500-
NORTHEAST MISSISSIPPI

CITY           SKY/WX    TMP DP  RH WIND       PRES   REMARKS
COLUMBUS AFB   LGT RAIN  45  45 100 N10       30.36R
CORINTH        CLOUDY    36  34  93 NE12      30.44R FOG     WCI  27
GOLDN TRIANGLE CLOUDY    46  43  87 N12G21    30.36R FOG
STARKVILLE     DRIZZLE   43  43 100 N5        30.37R
TUPELO         CLOUDY    39  37  92 NE16      30.40S FOG     WCI  30
$$

MSZ040-058-021500-
CENTRAL MISSISSIPPI

CITY           SKY/WX    TMP DP  RH WIND       PRES   REMARKS
JACKSON INTL   DRZL/FOG  50  50 100 N7        30.32R VSB 1
JACKSON HAWKNS CLOUDY    48  47  96 N6        30.32R FOG
MERIDIAN KEY   LGT RAIN  55  54  96 NE5       30.33R FOG
MERIDIAN NAS   LGT RAIN  54  52  93 CALM      30.34R FOG
VICKSBURG      CLOUDY    43  41  93 N13       30.35S FOG
$$

MSZ059>079-021500-
SOUTH MISSISSIPPI

CITY           SKY/WX    TMP DP  RH WIND       PRES   REMARKS
BROOKHAVEN     CLOUDY    57  57 100 N3        30.30S
HATTIESBURG    FOG       59  58  96 E3        30.30R VSB 1/4
MCCOMB         CLOUDY    60  60 100 SE5       30.28R FOG
NATCHEZ        CLOUDY    46  45  93 N8        30.30F VSB 1/4
PINE BELT      CLOUDY    57  55  94 NE3       30.30S VSB 1/4
$$

MSZ080>082-021500-
COASTAL MISSISSIPPI

CITY           SKY/WX    TMP DP  RH WIND       PRES   REMARKS
BAY ST LOUIS   CLOUDY    59  55  88 CALM      30.28R FOG
BILOXI         CLOUDY    61  61 100 SE6       30.27S FOG
PASCAGOULA     FOG       60  60 100 CALM      30.29R VSB 1/4
GULFPORT       FOG       61  60  97 E6        30.28R VSB 1
$$



USA.gov is the U.S. government's official web portal to all federal, state and local government web resources and services.